Location: Rounton
(54.4000°N, 1.3500°W)
Time: 06:47:37
(UTC+01:00)

Envisat - Visible Passes

Search period start: 23 April 2025 00:00
Search period end: 03 May 2025 00:00
Orbit: 761 x 763 km, 98.3° (Epoch: 22 April)

Date Brightness Start Highest point End Pass type
(mag) Time Alt. Az. Time Alt. Az. Time Alt. Az.
23 Apr 5.4 02:37:11 10° NE 02:40:01 15° E 02:42:50 10° ESE visible
23 Apr 3.1 04:14:42 10° NNE 04:19:49 80° ESE 04:24:53 10° SSW visible
24 Apr 4.1 03:37:10 10° NNE 03:41:59 42° E 03:46:47 10° SSE visible
25 Apr 5.0 03:00:02 10° NE 03:03:58 22° E 03:07:53 10° SE visible
25 Apr 3.0 04:38:21 10° NNE 04:43:25 70° WNW 04:48:28 10° SSW visible
26 Apr 5.6 02:24:06 10° ENE 02:25:44 11° E 02:27:21 10° E visible
26 Apr 3.4 04:00:40 10° NNE 04:05:44 63° ESE 04:10:45 10° S visible
27 Apr 4.4 03:23:15 10° NNE 03:27:50 33° E 03:32:23 10° SSE visible
28 Apr 5.3 02:46:21 10° NE 02:49:44 18° E 02:53:05 10° SE visible
28 Apr 3.0 04:24:16 10° NNE 04:29:23 87° WNW 04:34:28 10° SSW visible
29 Apr 3.8 03:46:40 10° NNE 03:51:36 49° E 03:56:31 10° S visible
30 Apr 4.8 03:09:23 10° NE 03:13:38 26° E 03:17:52 10° SSE visible
01 May 5.5 02:32:54 10° NE 02:35:27 14° E 02:38:00 10° ESE visible
01 May 3.2 04:10:12 10° NNE 04:15:18 75° ESE 04:20:22 10° S visible
02 May 4.2 03:32:42 10° NNE 03:37:27 39° E 03:42:11 10° SSE visible
